Regional Weather Roundup
Issued by NWS New Orleans/Baton Rouge, LA

Home | Current Version | Previous Version | Graphics & Text | Print | Product List | Glossary On
Versions: 1 2 3 4 5 6 7 8 9 10 11 12 13 14 15 16 17 18 19 20 21 22 23 24 25 26 27 28 29 30 31 32 33 34 35 36 37 38 39 40 41 42 43 44 45 46 47 48 49 50
986
ASUS44 KLIX 180410
RWRLIX
NEW ORLEANS REGIONAL WEATHER ROUNDUP
NATIONAL WEATHER SERVICE NEW ORLEANS LA
1000 PM CST WED DEC 17 2014

NOTE: "FAIR" INDICATES FEW OR NO CLOUDS BELOW 12,000 FEET WITH NO
      SIGNIFICANT WEATHER AND/OR OBSTRUCTIONS TO VISIBILITY.
      SKY/WX - SKY CONDITION AND SIGNIFICANT WEATHER.
      TMP - AIR TEMPERATURE.     DP    - DEWPOINT TEMPERATURE.
      RH  - RELATIVE HUMIDITY.   PRES  - PRESSURE.
      HI  - HEAT INDEX.          WCI   - WIND CHILL INDEX.

*  THESE STATIONS ARE NOT NWS OR FAA STATIONS AND ARE NOT UNDER
   NWS QUALITY CONTROL.

LAZ038-040-048-061>063-065>067-069-180500-
SOUTHEAST LOUISIANA

CITY           SKY/WX    TMP DP  RH WIND       PRES   REMARKS
N.O. AUDUBON     N/A     51  44  77 MISG        N/A
N.O. INTL ARPT CLOUDY    52  42  69 CALM      30.20S
N.O. LAKEFRONT CLOUDY    53  43  68 SE6       30.21S
N.O. DOWNTOWN*   N/A     55  37  50 CALM      30.21S
SLIDELL        CLOUDY    44  41  89 N3        30.20S
BATON ROUGE    MOCLDY    50  41  71 E3        30.17F
BOOTHVILLE     CLOUDY    54  49  83 NE6       30.20S
BELLE CHASSE   MOCLDY    46  42  86 CALM      30.20S
BOGALUSA*        N/A     46  42  86 CALM      30.21F
GALLIANO*      MOCLDY    54  49  81 MISG      30.20S
NEW ROADS*       N/A     50  41  71 SE3       30.18S
GONZALES*        N/A     49  43  81 SE3       30.17F
HAMMOND*       NOT AVBL
HOUMA*         CLOUDY    50  47  90 NE7       30.18F
PORT FOURCHON* CLEAR     59  52  77 E7        30.22S

$$

MSZ070-080>082-180500-
SOUTHERN MISSISSIPPI

CITY           SKY/WX    TMP DP  RH WIND       PRES   REMARKS
MCCOMB         CLOUDY    47  41  80 CALM      30.19S
GULFPORT       CLOUDY    46  42  86 CALM      30.21R
BILOXI         CLOUDY    50  42  73 NE2       30.21R
PASCAGOULA     CLOUDY    42  40  92 CALM      30.22R

$$

COASTAL OBSERVATIONS
LAKE AND NEARSHORE STATIONS

STATION/POSITION TIME  TEMP    WIND        PRES    WAVE
                       AIR SEA DIR/SP/G            HT/PER
                 (UTC) (F)     (DEG/KT/KT) (MB)    (FT/S)
PASCAGOULA       0400   52      CALM  /  2 1022.6
WAVELAND YACHT   0400   51     340/  1/  2 1022.3
GRAND ISLE       0400   58 62   90/  6/  9 1022.7
SOUTHWEST PASS   0400   56                 1022.2
NEW CANAL        0400   52 57  150/  3/  3 1023.1
SHELL BEACH      0400   55 60  100/  4/  6 1022.6

OFFSHORE STATIONS

STATION/POSITION TIME  TEMP    WIND        PRES    WAVE
                       AIR SEA DIR/SP/G            HT/PER
                 (UTC) (F)     (DEG/KT/KT) (MB)    (FT/S)
64 S DAUPHIN ISL 0400   61 74   80/  6/  8 1022.0    1/ 5

$$




USA.gov is the U.S. government's official web portal to all federal, state and local government web resources and services.